Location: Newark
(11.2914°S, 14.4718°E)
Time: 12:12:29
(UTC+00:00)

Vanguard 1 Rocket - All Passes

Search period start: 22 September 2019 00:00
Search period end: 02 October 2019 00:00
Orbit: 651 x 4225 km, 34.3° (Epoch: 20 September)

Date Brightness Start Highest point End Pass type
(mag) Time Alt. Az. Time Alt. Az. Time Alt. Az.
22 Sep - 02:34:54 10° WNW 02:39:16 63° SSW 02:45:21 10° SE visible
22 Sep - 05:01:55 10° SW 05:06:40 20° S 05:13:35 10° SE daylight
22 Sep - 07:28:43 10° SW 07:37:41 26° SSE 07:52:12 10° ESE daylight
22 Sep - 09:54:13 10° SW 10:10:04 56° SSE 10:35:12 10° ENE daylight
22 Sep - 12:21:39 10° WSW 12:43:17 73° NW 13:09:05 10° NE daylight
22 Sep - 14:56:36 10° W 15:17:02 30° NW 15:35:18 10° NNE daylight
23 Sep - 01:24:13 10° NW 01:28:30 49° NE 01:33:18 10° ESE visible
23 Sep - 03:50:03 10° WSW 03:54:12 23° SSW 04:00:06 10° SE visible
23 Sep - 06:17:39 10° SW 06:23:47 20° S 06:32:57 10° SE daylight
23 Sep - 08:42:57 10° SW 08:55:25 41° SSE 09:16:32 10° E daylight
23 Sep - 11:08:53 10° SW 11:27:46 86° SE 11:54:37 10° NE daylight
23 Sep - 13:39:24 10° WSW 14:01:24 45° NW 14:23:56 10° NNE daylight
23 Sep - 16:27:09 10° WNW 16:36:16 13° NW 16:44:26 10° NNW daylight
24 Sep - 00:14:20 10° N 00:17:40 18° NE 00:20:48 10° E night (unlit)
24 Sep - 02:38:22 10° W 02:42:31 37° SSW 02:48:00 10° SE visible
24 Sep - 05:06:18 10° SW 05:10:30 16° S 05:16:13 10° SE daylight
24 Sep - 07:32:04 10° SSW 07:41:18 28° SSE 07:56:34 10° ESE daylight
24 Sep - 09:57:04 10° SW 10:12:47 65° SE 10:38:25 10° ENE daylight
24 Sep - 12:24:47 10° WSW 12:45:43 62° NW 13:11:11 10° NE daylight
24 Sep - 15:01:58 10° W 15:20:04 24° NW 15:36:38 10° N daylight
25 Sep - 01:27:05 10° NW 01:31:32 89° SW 01:36:27 10° SE visible
25 Sep - 03:54:22 10° SW 03:57:50 17° S 04:02:21 10° SSE visible
25 Sep - 06:21:24 10° SSW 06:27:37 19° SSE 06:36:53 10° ESE daylight
25 Sep - 08:45:53 10° SW 08:58:27 47° SSE 09:20:24 10° E daylight
25 Sep - 11:11:49 10° WSW 11:30:15 82° NW 11:57:01 10° NE daylight
25 Sep - 13:43:26 10° W 14:04:06 36° NW 14:25:36 10° NNE daylight
26 Sep - 00:16:17 10° NNW 00:20:47 33° NE 00:24:48 10° E night (unlit)
26 Sep - 02:42:11 10° WSW 02:45:52 24° SSW 02:50:27 10° SSE visible
26 Sep - 05:10:40 10° SSW 05:14:22 14° S 05:19:08 10° SE daylight
26 Sep - 07:35:12 10° SSW 07:44:42 32° SSE 08:00:56 10° E daylight
26 Sep - 09:59:55 10° SW 10:15:24 76° SE 10:41:18 10° ENE daylight
26 Sep - 12:28:11 10° WSW 12:48:16 52° NW 13:13:04 10° NNE daylight
26 Sep - 15:08:29 10° WNW 15:23:34 18° NW 15:37:36 10° N daylight
26 Sep - 23:06:14 10° N 23:09:31 15° NNE 23:12:18 10° ENE night (unlit)
27 Sep - 01:30:18 10° WNW 01:34:39 49° SSW 01:39:19 10° SE visible
27 Sep - 03:59:10 10° SSW 04:01:34 12° S 04:04:24 10° SSE visible
27 Sep - 06:24:50 10° SSW 06:31:19 21° SSE 06:41:10 10° ESE daylight
27 Sep - 08:48:46 10° SW 09:01:19 55° SE 09:23:55 10° ENE daylight
27 Sep - 11:14:53 10° WSW 11:32:48 70° NW 11:59:11 10° NE daylight
27 Sep - 13:48:04 10° W 14:07:06 29° NW 14:27:04 10° NNE daylight
28 Sep - 00:18:47 10° NW 00:23:53 62° NE 00:28:13 10° ESE night (unlit)
28 Sep - 02:46:30 10° WSW 02:49:20 16° SSW 02:52:38 10° SSE visible
28 Sep - 05:14:45 10° SSW 05:18:12 13° SSE 05:22:32 10° SE daylight
28 Sep - 07:38:10 10° SW 07:47:53 37° SSE 08:05:05 10° E daylight
28 Sep - 10:02:50 10° SW 10:17:59 88° SE 10:43:53 10° NE daylight
28 Sep - 12:31:55 10° W 12:51:03 42° NW 13:14:44 10° NNE daylight
28 Sep - 15:16:43 10° NW 15:27:37 14° NNW 15:37:54 10° N daylight
28 Sep - 23:07:39 10° NNW 23:12:50 27° NNE 23:16:44 10° E night (unlit)
29 Sep - 01:33:53 10° W 01:37:49 29° SSW 01:41:56 10° SSE visible
29 Sep - 06:27:59 10° SSW 06:34:51 23° SSE 06:45:37 10° ESE daylight
29 Sep - 08:51:39 10° SW 09:04:02 65° SE 09:27:06 10° ENE daylight
29 Sep - 11:18:10 10° WSW 11:35:28 59° NW 12:01:05 10° NE daylight
29 Sep - 13:53:30 10° WNW 14:10:30 23° NNW 14:28:18 10° NNE daylight
29 Sep - 21:57:06 10° N 22:01:04 15° NNE 22:04:12 10° ENE night (unlit)
30 Sep - 00:21:41 10° WNW 00:26:57 73° SW 00:31:20 10° SE night (unlit)
30 Sep - 02:51:49 10° SSW 02:52:54 11° SSW 02:54:02 10° S visible
30 Sep - 05:18:21 10° S 05:21:58 14° SSE 05:26:34 10° SE daylight
30 Sep - 07:41:04 10° SW 07:50:52 43° SE 08:08:57 10° E daylight
30 Sep - 10:05:52 10° WSW 10:20:37 79° NW 10:46:09 10° NE daylight
30 Sep - 12:36:07 10° W 12:54:05 34° NW 13:16:12 10° NNE daylight
30 Sep - 15:29:13 10° NNW 15:32:17 10° NNW 15:35:16 10° NNW daylight
30 Sep - 23:09:47 10° NW 23:16:04 46° NNE 23:20:27 10° ESE night (unlit)
01 Oct - 01:37:57 10° WSW 01:41:05 18° SSW 01:44:18 10° SSE visible
01 Oct - 06:30:58 10° SSW 06:38:09 27° SSE 06:50:01 10° E daylight
01 Oct - 08:54:33 10° SW 09:06:43 77° SE 09:29:54 10° ENE daylight
01 Oct - 11:21:42 10° WSW 11:38:19 48° NW 12:02:46 10° NNE daylight
01 Oct - 14:00:03 10° WNW 14:14:23 18° NNW 14:29:14 10° N daylight
01 Oct - 21:58:06 10° NNW 22:04:34 24° NNE 22:08:58 10° E night (unlit)
